IBE29LP LEMH-GCFV

Flight info

Callsign IBE29LP
Flight time N/A
Altitude 35000
Route BAVER M603 ALT/N0439F280 Y810 AMR/N0451F350 N860 BERUM UG850 ADM UN869 RUSIK
Aircraft A320/M-SDE3FGHIRWY/LB1

Departure

Time 2026-04-24 09:51
Airport Menorca Airport (LEMH)

Arrival

Time N/A
Airport Fuerteventura Airport (GCFV)
Time Latitude Longitude Altitude Speed Heading
2026-04-24 09:06 39.86426 4.22388 291 ft 0 kts 99°
2026-04-24 09:25 39.86426 4.22387 286 ft 0 kts 99°
2026-04-24 09:42 39.86428 4.22369 291 ft 4 kts 99°
2026-04-24 09:42 39.86431 4.22342 291 ft 4 kts 102°
2026-04-24 09:42 39.86440 4.22314 293 ft 4 kts 169°
2026-04-24 09:43 39.86463 4.22316 294 ft 3 kts 189°
2026-04-24 09:43 39.86466 4.22317 293 ft 0 kts 189°
2026-04-24 09:45 39.86442 4.22312 293 ft 9 kts 189°
2026-04-24 09:46 39.86380 4.22298 288 ft 8 kts 187°
2026-04-24 09:46 39.86330 4.22289 288 ft 6 kts 188°
2026-04-24 09:46 39.86291 4.22282 288 ft 5 kts 189°
2026-04-24 09:46 39.86236 4.22270 288 ft 9 kts 189°
2026-04-24 09:47 39.86188 4.22240 291 ft 6 kts 234°
2026-04-24 09:47 39.86186 4.22186 291 ft 9 kts 279°
2026-04-24 09:47 39.86184 4.22103 294 ft 7 kts 236°
2026-04-24 09:47 39.86127 4.22077 296 ft 14 kts 188°
2026-04-24 09:48 39.86005 4.22054 298 ft 19 kts 188°
2026-04-24 09:48 39.85875 4.22027 298 ft 20 kts 189°
2026-04-24 09:48 39.85730 4.21995 293 ft 23 kts 189°
2026-04-24 09:48 39.85566 4.21963 286 ft 26 kts 188°
2026-04-24 09:49 39.85382 4.21925 283 ft 28 kts 189°
2026-04-24 09:49 39.85220 4.21890 281 ft 15 kts 189°
2026-04-24 09:49 39.85128 4.21851 282 ft 13 kts 229°
2026-04-24 09:49 39.85131 4.21759 289 ft 9 kts 281°
2026-04-24 09:50 39.85140 4.21701 285 ft 5 kts 281°
2026-04-24 09:50 39.85152 4.21665 286 ft 7 kts 303°
2026-04-24 09:50 39.85195 4.21647 286 ft 2 kts
2026-04-24 09:50 39.85197 4.21647 286 ft 0 kts
2026-04-24 09:51 39.85315 4.21672 285 ft 53 kts 10°
2026-04-24 09:51 39.85908 4.21793 303 ft 116 kts
2026-04-24 09:51 39.86881 4.22003 336 ft 162 kts
2026-04-24 09:51 39.87938 4.22215 1093 ft 146 kts 14°
2026-04-24 09:52 39.88980 4.22414 1508 ft 159 kts 13°
2026-04-24 09:52 39.90092 4.22615 2063 ft 161 kts 12°
2026-04-24 09:52 39.91218 4.22822 2439 ft 170 kts 13°
2026-04-24 09:52 39.92455 4.23077 2630 ft 192 kts 13°
2026-04-24 09:53 39.93831 4.23349 2960 ft 209 kts 11°
2026-04-24 09:53 39.95344 4.23615 3292 ft 230 kts 11°
2026-04-24 09:53 39.97021 4.23920 3568 ft 256 kts 11°
2026-04-24 09:53 39.98835 4.24303 4103 ft 270 kts 14°
2026-04-24 09:54 40.00520 4.25365 4817 ft 271 kts 46°
2026-04-24 09:54 40.01439 4.27463 5640 ft 272 kts 77°
2026-04-24 09:54 40.01336 4.29934 6340 ft 278 kts 110°
2026-04-24 09:54 40.00243 4.31968 7072 ft 283 kts 138°
2026-04-24 09:55 39.98668 4.33548 7789 ft 287 kts 142°
2026-04-24 09:55 39.97076 4.35158 8481 ft 291 kts 140°
2026-04-24 09:55 39.95347 4.36589 9098 ft 298 kts 162°
2026-04-24 09:55 39.93294 4.36786 9768 ft 300 kts 194°
2026-04-24 09:56 39.91454 4.35587 10358 ft 300 kts 225°
2026-04-24 09:56 39.90240 4.33353 10530 ft 317 kts 247°
2026-04-24 09:56 39.89268 4.30614 10665 ft 339 kts 248°
2026-04-24 09:56 39.88282 4.27809 11105 ft 349 kts 248°
2026-04-24 09:57 39.87256 4.24883 11742 ft 353 kts 248°
2026-04-24 09:57 39.86200 4.21976 12068 ft 356 kts 244°
2026-04-24 09:57 39.84823 4.19332 12153 ft 359 kts 233°
2026-04-24 09:57 39.83189 4.16847 12642 ft 363 kts 232°
2026-04-24 09:58 39.81517 4.14347 13323 ft 365 kts 232°
2026-04-24 09:58 39.79836 4.11853 13965 ft 368 kts 232°
2026-04-24 09:58 39.78140 4.09347 14518 ft 371 kts 232°
2026-04-24 09:58 39.76437 4.06829 15048 ft 375 kts 232°
2026-04-24 09:59 39.74706 4.04267 15580 ft 379 kts 232°
2026-04-24 09:59 39.72959 4.01684 16103 ft 382 kts 232°
2026-04-24 09:59 39.71193 3.99074 16623 ft 386 kts 231°
2026-04-24 09:59 39.69414 3.96444 17135 ft 389 kts 231°
2026-04-24 10:00 39.67616 3.93785 17672 ft 393 kts 231°
2026-04-24 10:00 39.65799 3.91100 18190 ft 396 kts 231°
2026-04-24 10:00 39.63969 3.88391 18678 ft 400 kts 231°
2026-04-24 10:00 39.62156 3.85708 19136 ft 402 kts 231°
2026-04-24 10:01 39.60304 3.82970 19614 ft 405 kts 231°
2026-04-24 10:01 39.58437 3.80217 20090 ft 407 kts 231°
2026-04-24 10:01 39.56558 3.77455 20567 ft 410 kts 231°
2026-04-24 10:01 39.54661 3.74670 21023 ft 412 kts 231°
2026-04-24 10:02 39.52762 3.71881 21497 ft 414 kts 231°
2026-04-24 10:02 39.50844 3.69061 21939 ft 417 kts 231°
2026-04-24 10:02 39.48925 3.66240 22376 ft 419 kts 231°
2026-04-24 10:02 39.46991 3.63405 22798 ft 421 kts 231°
2026-04-24 10:03 39.45045 3.60560 23224 ft 423 kts 230°
2026-04-24 10:03 39.43090 3.57703 23628 ft 425 kts 231°
2026-04-24 10:03 39.41141 3.54858 23976 ft 427 kts 230°
2026-04-24 10:03 39.39161 3.51969 24317 ft 429 kts 230°
2026-04-24 10:04 39.37243 3.49009 24662 ft 429 kts 237°
2026-04-24 10:04 39.35745 3.45683 24976 ft 427 kts 248°
2026-04-24 10:04 39.34784 3.42065 25299 ft 426 kts 259°
2026-04-24 10:04 39.34387 3.38286 25611 ft 425 kts 270°
2026-04-24 10:05 39.34546 3.34482 25919 ft 425 kts 280°
2026-04-24 10:05 39.35109 3.30735 26226 ft 426 kts 282°
2026-04-24 10:05 39.35694 3.26982 26528 ft 427 kts 282°
2026-04-24 10:05 39.36282 3.23212 26822 ft 429 kts 282°
2026-04-24 10:06 39.36871 3.19429 27125 ft 430 kts 282°
2026-04-24 10:06 39.38040 3.11870 27694 ft 433 kts 282°
2026-04-24 10:06 39.38629 3.08038 27964 ft 435 kts 282°
2026-04-24 10:07 39.39217 3.04191 28251 ft 436 kts 282°
2026-04-24 10:07 39.39804 3.00331 28511 ft 437 kts 282°
2026-04-24 10:07 39.40391 2.96471 28760 ft 439 kts 282°
2026-04-24 10:07 39.40981 2.92587 29001 ft 440 kts 281°
2026-04-24 10:08 39.41572 2.88694 29223 ft 442 kts 281°
2026-04-24 10:08 39.42165 2.84790 29441 ft 443 kts 281°
2026-04-24 10:08 39.42606 2.80889 29651 ft 445 kts 274°
2026-04-24 10:08 39.42545 2.76877 29850 ft 447 kts 264°
2026-04-24 10:09 39.41953 2.72926 30066 ft 449 kts 255°
2026-04-24 10:09 39.40851 2.69146 30329 ft 449 kts 245°
2026-04-24 10:09 39.39439 2.65545 30556 ft 449 kts 244°
2026-04-24 10:09 39.38014 2.61939 30792 ft 449 kts 244°
2026-04-24 10:10 39.36590 2.58349 31019 ft 448 kts 244°
2026-04-24 10:10 39.35169 2.54773 31251 ft 448 kts 244°
2026-04-24 10:10 39.33744 2.51194 31486 ft 447 kts 244°
2026-04-24 10:10 39.32319 2.47614 31715 ft 447 kts 244°
2026-04-24 10:11 39.30894 2.44040 31946 ft 447 kts 244°
2026-04-24 10:11 39.29484 2.40508 32169 ft 446 kts 244°
2026-04-24 10:11 39.28064 2.36958 32403 ft 446 kts 244°
2026-04-24 10:11 39.26640 2.33403 32638 ft 445 kts 244°
2026-04-24 10:12 39.25216 2.29855 32870 ft 445 kts 243°
2026-04-24 10:12 39.23788 2.26304 33103 ft 444 kts 243°
2026-04-24 10:12 39.22365 2.22764 33325 ft 443 kts 243°
2026-04-24 10:12 39.20946 2.19230 33553 ft 443 kts 243°
2026-04-24 10:13 39.19546 2.15754 33781 ft 442 kts 243°
2026-04-24 10:13 39.18128 2.12238 34013 ft 441 kts 243°
2026-04-24 10:13 39.16704 2.08710 34228 ft 441 kts 243°
2026-04-24 10:13 39.15290 2.05206 34429 ft 440 kts 243°
2026-04-24 10:14 39.13878 2.01707 34626 ft 439 kts 243°
2026-04-24 10:14 39.12484 1.98256 34810 ft 439 kts 243°
2026-04-24 10:14 39.11074 1.94774 34998 ft 438 kts 243°
2026-04-24 10:14 39.09661 1.91295 35114 ft 438 kts 243°
2026-04-24 10:15 39.08248 1.87825 35157 ft 437 kts 243°
2026-04-24 10:15 39.05428 1.80900 35149 ft 436 kts 243°
2026-04-24 10:16 39.02605 1.73996 35144 ft 436 kts 243°
2026-04-24 10:16 38.99777 1.67095 35144 ft 435 kts 243°
2026-04-24 10:17 38.96953 1.60205 35140 ft 435 kts 243°
2026-04-24 10:17 38.94156 1.53366 35140 ft 435 kts 243°
2026-04-24 10:18 38.91841 1.46211 35140 ft 434 kts 256°
2026-04-24 10:18 38.91197 1.38528 35135 ft 434 kts 266°
2026-04-24 10:19 38.90882 1.30823 35135 ft 434 kts 266°
2026-04-24 10:19 38.90539 1.23069 35132 ft 434 kts 266°
2026-04-24 10:20 38.90190 1.15302 35133 ft 435 kts 266°
2026-04-24 10:20 38.89841 1.07548 35131 ft 435 kts 266°
2026-04-24 10:21 38.89490 0.99824 35136 ft 435 kts 266°
2026-04-24 10:21 38.89140 0.92053 35134 ft 436 kts 266°
2026-04-24 10:22 38.88786 0.84321 35141 ft 436 kts 266°
2026-04-24 10:22 38.88417 0.76536 35141 ft 437 kts 265°
2026-04-24 10:23 38.87920 0.68764 35142 ft 436 kts 258°
2026-04-24 10:23 38.86078 0.61389 35140 ft 435 kts 248°
2026-04-24 10:24 38.83817 0.54174 35142 ft 435 kts 248°
2026-04-24 10:24 38.81351 0.47138 35141 ft 435 kts 238°
2026-04-24 10:25 38.78025 0.40662 35142 ft 435 kts 236°
2026-04-24 10:25 38.74676 0.34192 35145 ft 435 kts 236°
2026-04-24 10:26 38.71338 0.27739 35149 ft 434 kts 236°
2026-04-24 10:26 38.68018 0.21336 35147 ft 434 kts 236°
2026-04-24 10:27 38.64680 0.14915 35152 ft 433 kts 236°
2026-04-24 10:27 38.61338 0.08506 35155 ft 432 kts 236°
2026-04-24 10:28 38.58008 0.02117 35152 ft 431 kts 236°
2026-04-24 10:28 38.55240 -0.03184 35155 ft 430 kts 236°
2026-04-24 10:29 38.51910 -0.09539 35146 ft 430 kts 236°
2026-04-24 10:29 38.48036 -0.16910 35139 ft 430 kts 236°
2026-04-24 10:30 38.45265 -0.22177 35134 ft 430 kts 236°
2026-04-24 10:30 38.41938 -0.28495 35125 ft 430 kts 236°
2026-04-24 10:31 38.38593 -0.34819 35122 ft 430 kts 236°
2026-04-24 10:31 38.35240 -0.41145 35122 ft 430 kts 236°
2026-04-24 10:32 38.31898 -0.47463 35125 ft 430 kts 236°
2026-04-24 10:32 38.28424 -0.53648 35123 ft 429 kts 227°
2026-04-24 10:33 38.23797 -0.58338 35123 ft 429 kts 208°
2026-04-24 10:33 38.18285 -0.61268 35117 ft 430 kts 202°
2026-04-24 10:34 38.12707 -0.64042 35116 ft 430 kts 202°
2026-04-24 10:34 38.07134 -0.66830 35113 ft 430 kts 202°
2026-04-24 10:35 38.01596 -0.69596 35108 ft 430 kts 202°
2026-04-24 10:35 37.96013 -0.72368 35099 ft 430 kts 202°
2026-04-24 10:36 37.90438 -0.75121 35099 ft 430 kts 202°
2026-04-24 10:36 37.84877 -0.77868 35096 ft 430 kts 202°
2026-04-24 10:37 37.79437 -0.80972 35099 ft 428 kts 213°
2026-04-24 10:37 37.75004 -0.85919 35098 ft 426 kts 231°
2026-04-24 10:38 37.71280 -0.91747 35097 ft 426 kts 231°
2026-04-24 10:38 37.67566 -0.97510 35099 ft 426 kts 231°
2026-04-24 10:39 37.63825 -1.03319 35129 ft 425 kts 231°
2026-04-24 10:39 37.60108 -1.09088 35126 ft 425 kts 231°
2026-04-24 10:40 37.56350 -1.14911 35131 ft 425 kts 231°
2026-04-24 10:40 37.52634 -1.20654 35123 ft 425 kts 231°
2026-04-24 10:41 37.48890 -1.26432 35122 ft 425 kts 231°
2026-04-24 10:41 37.45171 -1.32157 35114 ft 425 kts 231°
2026-04-24 10:42 37.41400 -1.37956 35119 ft 425 kts 231°
2026-04-24 10:42 37.37669 -1.43684 35119 ft 426 kts 230°
2026-04-24 10:43 37.33910 -1.49440 35121 ft 426 kts 231°
2026-04-24 10:43 37.30147 -1.55209 35119 ft 426 kts 230°
2026-04-24 10:44 37.26387 -1.60955 35122 ft 425 kts 230°
2026-04-24 10:44 37.22620 -1.66687 35128 ft 425 kts 230°
2026-04-24 10:45 37.18885 -1.72368 35134 ft 425 kts 230°
2026-04-24 10:45 37.15119 -1.78087 35131 ft 424 kts 230°
2026-04-24 10:46 37.11365 -1.83785 35135 ft 424 kts 230°
2026-04-24 10:46 37.07595 -1.89481 35130 ft 424 kts 230°
2026-04-24 10:47 37.03831 -1.95157 35136 ft 423 kts 230°
2026-04-24 10:47 37.00085 -2.00807 35126 ft 423 kts 230°
2026-04-24 10:48 36.96317 -2.06467 35115 ft 423 kts 230°
2026-04-24 10:48 36.92556 -2.12110 35103 ft 422 kts 230°
2026-04-24 10:49 36.88786 -2.17769 35098 ft 422 kts 230°
2026-04-24 10:49 36.85016 -2.23397 35088 ft 422 kts 230°
2026-04-24 10:50 36.80828 -2.28448 35083 ft 422 kts 219°
2026-04-24 10:50 36.76251 -2.33038 35077 ft 422 kts 219°
2026-04-24 10:51 36.71671 -2.37637 35081 ft 422 kts 219°
2026-04-24 10:51 36.67094 -2.42245 35088 ft 423 kts 219°
2026-04-24 10:52 36.62503 -2.46840 35099 ft 423 kts 219°
2026-04-24 10:52 36.57936 -2.51398 35108 ft 423 kts 219°
2026-04-24 10:53 36.53342 -2.55986 35123 ft 422 kts 219°
2026-04-24 10:53 36.48769 -2.60548 35121 ft 422 kts 219°
2026-04-24 10:54 36.44166 -2.65079 35120 ft 421 kts 218°
2026-04-24 10:54 36.39521 -2.69527 35118 ft 421 kts 218°
2026-04-24 10:55 36.34899 -2.73916 35119 ft 421 kts 218°
2026-04-24 10:55 36.30255 -2.78346 35112 ft 421 kts 218°
2026-04-24 10:56 36.25617 -2.82785 35112 ft 421 kts 218°
2026-04-24 10:56 36.20974 -2.87213 35111 ft 420 kts 218°
2026-04-24 10:57 36.16378 -2.91636 35106 ft 420 kts 218°
2026-04-24 10:57 36.11780 -2.96116 35103 ft 420 kts 219°
2026-04-24 10:58 36.07186 -3.00594 35106 ft 421 kts 218°
2026-04-24 10:58 36.02582 -3.05056 35105 ft 421 kts 218°
2026-04-24 10:59 35.97968 -3.09499 35109 ft 421 kts 218°
2026-04-24 10:59 35.93350 -3.13946 35104 ft 421 kts 218°
2026-04-24 11:00 35.88735 -3.18392 35103 ft 420 kts 218°
2026-04-24 11:00 35.84123 -3.22822 35101 ft 420 kts 218°
2026-04-24 11:01 35.79515 -3.27207 35106 ft 420 kts 218°
2026-04-24 11:01 35.74861 -3.31570 35098 ft 420 kts 218°
2026-04-24 11:02 35.70194 -3.35944 35099 ft 420 kts 218°
2026-04-24 11:02 35.65568 -3.40273 35113 ft 420 kts 218°
2026-04-24 11:03 35.60903 -3.44636 35105 ft 420 kts 218°
2026-04-24 11:03 35.56252 -3.49003 35086 ft 420 kts 218°
2026-04-24 11:04 35.51632 -3.53326 35087 ft 420 kts 218°
2026-04-24 11:04 35.46987 -3.57659 35097 ft 419 kts 218°
2026-04-24 11:05 35.42329 -3.61999 35103 ft 419 kts 218°
2026-04-24 11:05 35.37670 -3.66323 35124 ft 419 kts 217°
2026-04-24 11:06 35.33024 -3.70632 35121 ft 419 kts 217°
2026-04-24 11:06 35.28407 -3.74917 35126 ft 419 kts 217°
2026-04-24 11:07 35.21422 -3.81385 35125 ft 419 kts 217°
2026-04-24 11:07 35.16807 -3.85664 35136 ft 419 kts 218°
2026-04-24 11:08 35.12215 -3.90035 35133 ft 418 kts 218°
2026-04-24 11:08 35.07630 -3.94437 35127 ft 418 kts 218°
2026-04-24 11:09 35.03036 -3.98826 35109 ft 418 kts 218°
2026-04-24 11:09 34.98463 -4.03161 35104 ft 418 kts 218°
2026-04-24 11:10 34.93865 -4.07500 35113 ft 418 kts 218°
2026-04-24 11:10 34.89269 -4.11850 35114 ft 418 kts 218°
2026-04-24 11:11 34.84701 -4.16167 35123 ft 418 kts 218°
2026-04-24 11:11 34.80101 -4.20501 35121 ft 418 kts 218°
2026-04-24 11:12 34.75493 -4.24845 35127 ft 418 kts 218°
2026-04-24 11:12 34.70892 -4.29173 35129 ft 418 kts 218°
2026-04-24 11:13 34.66312 -4.33478 35133 ft 418 kts 218°
2026-04-24 11:13 34.61702 -4.37800 35131 ft 418 kts 218°
2026-04-24 11:14 34.57089 -4.42112 35138 ft 418 kts 218°
2026-04-24 11:14 34.52497 -4.46402 35136 ft 418 kts 218°
2026-04-24 11:15 34.47888 -4.50711 35144 ft 418 kts 218°
2026-04-24 11:15 34.44054 -4.54294 35141 ft 418 kts 218°
2026-04-24 11:16 34.39442 -4.58597 35146 ft 418 kts 218°
2026-04-24 11:16 34.34818 -4.62870 35141 ft 418 kts 218°
2026-04-24 11:17 34.30200 -4.67108 35149 ft 417 kts 218°
2026-04-24 11:17 34.25572 -4.71352 35147 ft 417 kts 218°
2026-04-24 11:18 34.20948 -4.75595 35145 ft 417 kts 218°
2026-04-24 11:18 34.16314 -4.79833 35149 ft 417 kts 218°
2026-04-24 11:19 34.11731 -4.84030 35154 ft 417 kts 218°
2026-04-24 11:19 34.07106 -4.88268 35152 ft 417 kts 218°
2026-04-24 11:20 34.02478 -4.92491 35158 ft 417 kts 218°
2026-04-24 11:20 33.97850 -4.96715 35152 ft 416 kts 218°
2026-04-24 11:21 33.93278 -5.00939 35153 ft 416 kts 223°
2026-04-24 11:21 33.89379 -5.06049 35149 ft 414 kts 230°
2026-04-24 11:22 33.85603 -5.11306 35153 ft 414 kts 230°
2026-04-24 11:22 33.81839 -5.16530 35147 ft 414 kts 230°
2026-04-24 11:23 33.78057 -5.21771 35144 ft 414 kts 230°
2026-04-24 11:23 33.74302 -5.26971 35129 ft 414 kts 230°
2026-04-24 11:24 33.70519 -5.32196 35130 ft 414 kts 230°
2026-04-24 11:24 33.66741 -5.37407 35122 ft 414 kts 230°
2026-04-24 11:25 33.62984 -5.42590 35124 ft 413 kts 230°
2026-04-24 11:25 33.59198 -5.47804 35116 ft 413 kts 230°
2026-04-24 11:26 33.55407 -5.53004 35251 ft 415 kts 231°
2026-04-24 11:26 33.53505 -5.55616 35101 ft 416 kts 231°